Time,TemperatureF,DewpointF,PressureIn,WindDirection,WindDirectionDegrees,WindSpeedMPH,WindSpeedGustMPH,Humidity,HourlyPrecipIn,Conditions,Clouds,dailyrainin,SoftwareType,DateUTC
2013-02-06 00:00:00,29.0,-99.9,-100.00,NE,49,0.0,1.0,-999,-99.99,,,-99.99,,2013-02-06 06:00:00,
2013-02-06 00:32:00,29.0,-99.9,-100.00,NE,49,0.0,1.0,-999,-99.99,,,-99.99,,2013-02-06 06:32:00,
2013-02-06 00:42:00,29.0,-99.9,-100.00,NE,49,0.0,1.0,-999,-99.99,,,-99.99,,2013-02-06 06:42:00,
2013-02-06 00:52:00,29.0,-99.9,-100.00,NE,49,0.0,1.0,-999,-99.99,,,-99.99,,2013-02-06 06:52:00,
2013-02-06 01:00:00,27.0,-99.9,-100.00,ENE,67,2.0,3.0,-999,-99.99,,,-99.99,,2013-02-06 07:00:00,
2013-02-06 01:32:00,27.0,-99.9,-100.00,ENE,67,2.0,3.0,-999,-99.99,,,-99.99,,2013-02-06 07:32:00,
2013-02-06 01:42:00,27.0,-99.9,-100.00,ENE,67,2.0,3.0,-999,-99.99,,,-99.99,,2013-02-06 07:42:00,
2013-02-06 01:52:00,27.0,-99.9,-100.00,ENE,67,2.0,3.0,-999,-99.99,,,-99.99,,2013-02-06 07:52:00,
2013-02-06 02:00:00,26.0,-99.9,-100.00,NE,42,4.0,4.0,-999,-99.99,,,-99.99,,2013-02-06 08:00:00,
2013-02-06 02:32:00,26.0,-99.9,-100.00,NE,42,4.0,4.0,-999,-99.99,,,-99.99,,2013-02-06 08:32:00,
2013-02-06 02:42:00,26.0,-99.9,-100.00,NE,42,4.0,4.0,-999,-99.99,,,-99.99,,2013-02-06 08:42:00,
2013-02-06 02:53:00,26.0,-99.9,-100.00,NE,42,4.0,4.0,-999,-99.99,,,-99.99,,2013-02-06 08:53:00,
2013-02-06 03:00:00,26.0,-99.9,-100.00,NE,50,1.0,1.0,-999,-99.99,,,-99.99,,2013-02-06 09:00:00,
2013-02-06 03:32:00,26.0,-99.9,-100.00,NE,50,1.0,1.0,-999,-99.99,,,-99.99,,2013-02-06 09:32:00,
2013-02-06 03:42:00,26.0,-99.9,-100.00,NE,50,1.0,1.0,-999,-99.99,,,-99.99,,2013-02-06 09:42:00,
2013-02-06 03:52:00,26.0,-99.9,-100.00,NE,50,1.0,1.0,-999,-99.99,,,-99.99,,2013-02-06 09:52:00,
2013-02-06 04:00:00,26.0,-99.9,-100.00,ESE,112,0.0,1.0,-999,-99.99,,,-99.99,,2013-02-06 10:00:00,
2013-02-06 04:32:00,26.0,-99.9,-100.00,ESE,112,0.0,1.0,-999,-99.99,,,-99.99,,2013-02-06 10:32:00,
2013-02-06 04:42:00,26.0,-99.9,-100.00,ESE,112,0.0,1.0,-999,-99.99,,,-99.99,,2013-02-06 10:42:00,
2013-02-06 04:52:00,26.0,-99.9,-100.00,ESE,112,0.0,1.0,-999,-99.99,,,-99.99,,2013-02-06 10:52:00,
2013-02-06 05:00:00,26.0,-99.9,-100.00,ENE,64,0.0,4.0,-999,-99.99,,,-99.99,,2013-02-06 11:00:00,
2013-02-06 05:33:00,26.0,-99.9,-100.00,ENE,64,0.0,4.0,-999,-99.99,,,-99.99,,2013-02-06 11:33:00,
2013-02-06 05:42:00,26.0,-99.9,-100.00,ENE,64,0.0,4.0,-999,-99.99,,,-99.99,,2013-02-06 11:42:00,
2013-02-06 05:53:00,26.0,-99.9,-100.00,ENE,64,0.0,4.0,-999,-99.99,,,-99.99,,2013-02-06 11:53:00,
2013-02-06 06:00:00,26.0,-99.9,-100.00,ENE,78,2.0,6.0,-999,-99.99,,,-99.99,,2013-02-06 12:00:00,
2013-02-06 06:32:00,26.0,-99.9,-100.00,ENE,78,2.0,6.0,-999,-99.99,,,-99.99,,2013-02-06 12:32:00,
2013-02-06 06:42:00,26.0,-99.9,-100.00,ENE,78,2.0,6.0,-999,-99.99,,,-99.99,,2013-02-06 12:42:00,
2013-02-06 06:52:00,26.0,-99.9,-100.00,ENE,78,2.0,6.0,-999,-99.99,,,-99.99,,2013-02-06 12:52:00,
2013-02-06 07:00:00,28.0,-99.9,-100.00,ESE,120,0.0,5.0,-999,-99.99,,,-99.99,,2013-02-06 13:00:00,
2013-02-06 07:32:00,28.0,-99.9,-100.00,ESE,120,0.0,5.0,-999,-99.99,,,-99.99,,2013-02-06 13:32:00,
2013-02-06 07:42:00,28.0,-99.9,-100.00,ESE,120,0.0,5.0,-999,-99.99,,,-99.99,,2013-02-06 13:42:00,
2013-02-06 07:52:00,28.0,-99.9,-100.00,ESE,120,0.0,5.0,-999,-99.99,,,-99.99,,2013-02-06 13:52:00,
2013-02-06 08:00:00,29.0,-99.9,-100.00,East,89,2.0,9.0,-999,-99.99,,,-99.99,,2013-02-06 14:00:00,
2013-02-06 08:32:00,29.0,-99.9,-100.00,East,89,2.0,9.0,-999,-99.99,,,-99.99,,2013-02-06 14:32:00,
2013-02-06 08:42:00,29.0,-99.9,-100.00,East,89,2.0,9.0,-999,-99.99,,,-99.99,,2013-02-06 14:42:00,
2013-02-06 08:52:00,29.0,-99.9,-100.00,East,89,2.0,9.0,-999,-99.99,,,-99.99,,2013-02-06 14:52:00,
2013-02-06 09:00:00,30.0,-99.9,-100.00,ESE,108,9.0,14.0,-999,-99.99,,,-99.99,,2013-02-06 15:00:00,
2013-02-06 09:32:00,30.0,-99.9,-100.00,ESE,108,9.0,14.0,-999,-99.99,,,-99.99,,2013-02-06 15:32:00,
2013-02-06 09:42:00,30.0,-99.9,-100.00,ESE,108,9.0,14.0,-999,-99.99,,,-99.99,,2013-02-06 15:42:00,
2013-02-06 09:52:00,30.0,-99.9,-100.00,ESE,108,9.0,14.0,-999,-99.99,,,-99.99,,2013-02-06 15:52:00,
2013-02-06 10:00:00,32.0,-99.9,-100.00,NE,54,4.0,14.0,-999,-99.99,,,-99.99,,2013-02-06 16:00:00,
2013-02-06 10:52:00,32.0,-99.9,-100.00,NE,54,4.0,14.0,-999,-99.99,,,-99.99,,2013-02-06 16:52:00,
2013-02-06 11:00:00,39.0,-99.9,-100.00,East,92,16.0,23.0,-999,-99.99,,,-99.99,,2013-02-06 17:00:00,
2013-02-06 11:33:00,39.0,-99.9,-100.00,East,92,16.0,23.0,-999,-99.99,,,-99.99,,2013-02-06 17:33:00,
2013-02-06 12:00:00,40.0,-99.9,-100.00,ESE,111,14.0,20.0,-999,-99.99,,,-99.99,,2013-02-06 18:00:00,
2013-02-06 12:33:00,40.0,-99.9,-100.00,ESE,111,14.0,20.0,-999,-99.99,,,-99.99,,2013-02-06 18:33:00,
2013-02-06 12:42:00,40.0,-99.9,-100.00,ESE,111,14.0,20.0,-999,-99.99,,,-99.99,,2013-02-06 18:42:00,
2013-02-06 12:52:00,40.0,-99.9,-100.00,ESE,111,14.0,20.0,-999,-99.99,,,-99.99,,2013-02-06 18:52:00,
2013-02-06 13:00:00,40.0,-99.9,-100.00,SSE,148,4.0,13.0,-999,-99.99,,,-99.99,,2013-02-06 19:00:00,
2013-02-06 13:32:00,40.0,-99.9,-100.00,SSE,148,4.0,13.0,-999,-99.99,,,-99.99,,2013-02-06 19:32:00,
2013-02-06 13:42:00,40.0,-99.9,-100.00,SSE,148,4.0,13.0,-999,-99.99,,,-99.99,,2013-02-06 19:42:00,
2013-02-06 13:52:00,40.0,-99.9,-100.00,SSE,148,4.0,13.0,-999,-99.99,,,-99.99,,2013-02-06 19:52:00,
2013-02-06 14:00:00,41.0,-99.9,-100.00,ESE,118,10.0,16.0,-999,-99.99,,,-99.99,,2013-02-06 20:00:00,
2013-02-06 14:32:00,41.0,-99.9,-100.00,ESE,118,10.0,16.0,-999,-99.99,,,-99.99,,2013-02-06 20:32:00,
2013-02-06 14:42:00,41.0,-99.9,-100.00,ESE,118,10.0,16.0,-999,-99.99,,,-99.99,,2013-02-06 20:42:00,
2013-02-06 14:52:00,41.0,-99.9,-100.00,ESE,118,10.0,16.0,-999,-99.99,,,-99.99,,2013-02-06 20:52:00,
2013-02-06 15:00:00,42.0,-99.9,-100.00,East,82,6.0,17.0,-999,-99.99,,,-99.99,,2013-02-06 21:00:00,
2013-02-06 15:32:00,42.0,-99.9,-100.00,East,82,6.0,17.0,-999,-99.99,,,-99.99,,2013-02-06 21:32:00,
2013-02-06 15:42:00,42.0,-99.9,-100.00,East,82,6.0,17.0,-999,-99.99,,,-99.99,,2013-02-06 21:42:00,
2013-02-06 15:52:00,42.0,-99.9,-100.00,East,82,6.0,17.0,-999,-99.99,,,-99.99,,2013-02-06 21:52:00,
2013-02-06 16:00:00,42.0,-99.9,-100.00,East,83,4.0,11.0,-999,-99.99,,,-99.99,,2013-02-06 22:00:00,
2013-02-06 16:32:00,42.0,-99.9,-100.00,East,83,4.0,11.0,-999,-99.99,,,-99.99,,2013-02-06 22:32:00,
2013-02-06 16:42:00,42.0,-99.9,-100.00,East,83,4.0,11.0,-999,-99.99,,,-99.99,,2013-02-06 22:42:00,
2013-02-06 16:52:00,42.0,-99.9,-100.00,East,83,4.0,11.0,-999,-99.99,,,-99.99,,2013-02-06 22:52:00,
2013-02-06 17:00:00,43.0,-99.9,-100.00,East,97,7.0,7.0,-999,-99.99,,,-99.99,,2013-02-06 23:00:00,
2013-02-06 17:52:00,43.0,-99.9,-100.00,East,97,7.0,7.0,-999,-99.99,,,-99.99,,2013-02-06 23:52:00,
2013-02-06 18:00:00,40.0,-99.9,-100.00,NE,52,2.0,2.0,-999,-99.99,,,-99.99,,2013-02-07 00:00:00,
2013-02-06 18:32:00,40.0,-99.9,-100.00,NE,52,2.0,2.0,-999,-99.99,,,-99.99,,2013-02-07 00:32:00,
2013-02-06 18:42:00,40.0,-99.9,-100.00,NE,52,2.0,2.0,-999,-99.99,,,-99.99,,2013-02-07 00:42:00,
2013-02-06 18:52:00,40.0,-99.9,-100.00,NE,52,2.0,2.0,-999,-99.99,,,-99.99,,2013-02-07 00:52:00,
2013-02-06 19:00:00,40.0,-99.9,-100.00,ENE,77,7.0,8.0,-999,-99.99,,,-99.99,,2013-02-07 01:00:00,
2013-02-06 19:32:00,40.0,-99.9,-100.00,ENE,77,7.0,8.0,-999,-99.99,,,-99.99,,2013-02-07 01:32:00,
2013-02-06 19:42:00,40.0,-99.9,-100.00,ENE,77,7.0,8.0,-999,-99.99,,,-99.99,,2013-02-07 01:42:00,
2013-02-06 19:52:00,40.0,-99.9,-100.00,ENE,77,7.0,8.0,-999,-99.99,,,-99.99,,2013-02-07 01:52:00,
2013-02-06 20:00:00,40.0,-99.9,-100.00,ENE,66,3.0,4.0,-999,-99.99,,,-99.99,,2013-02-07 02:00:00,
2013-02-06 20:32:00,40.0,-99.9,-100.00,ENE,66,3.0,4.0,-999,-99.99,,,-99.99,,2013-02-07 02:32:00,
2013-02-06 20:42:00,40.0,-99.9,-100.00,ENE,66,3.0,4.0,-999,-99.99,,,-99.99,,2013-02-07 02:42:00,
2013-02-06 20:52:00,40.0,-99.9,-100.00,ENE,66,3.0,4.0,-999,-99.99,,,-99.99,,2013-02-07 02:52:00,
2013-02-06 21:00:00,38.0,-99.9,-100.00,NE,52,1.0,4.0,-999,-99.99,,,-99.99,,2013-02-07 03:00:00,
2013-02-06 21:32:00,38.0,-99.9,-100.00,NE,52,1.0,4.0,-999,-99.99,,,-99.99,,2013-02-07 03:32:00,
2013-02-06 21:42:00,38.0,-99.9,-100.00,NE,52,1.0,4.0,-999,-99.99,,,-99.99,,2013-02-07 03:42:00,
2013-02-06 21:52:00,38.0,-99.9,-100.00,NE,52,1.0,4.0,-999,-99.99,,,-99.99,,2013-02-07 03:52:00,
2013-02-06 22:00:00,38.0,-99.9,-100.00,NE,39,3.0,3.0,-999,-99.99,,,-99.99,,2013-02-07 04:00:00,
2013-02-06 22:32:00,38.0,-99.9,-100.00,NE,39,3.0,3.0,-999,-99.99,,,-99.99,,2013-02-07 04:32:00,
2013-02-06 22:42:00,38.0,-99.9,-100.00,NE,39,3.0,3.0,-999,-99.99,,,-99.99,,2013-02-07 04:42:00,
2013-02-06 22:53:00,38.0,-99.9,-100.00,NE,39,3.0,3.0,-999,-99.99,,,-99.99,,2013-02-07 04:53:00,
2013-02-06 23:00:00,38.0,-99.9,-100.00,East,99,0.0,1.0,-999,-99.99,,,-99.99,,2013-02-07 05:00:00,
2013-02-06 23:52:00,38.0,-99.9,-100.00,East,99,0.0,1.0,-999,-99.99,,,-99.99,,2013-02-07 05:52:00,